Weather History for KTCM - October, 2012

Change the Weather History Date:

Saturday, October 6, 2012

  Actual Average Record
Temperature  
Mean Temperature 52 °F -  
Max Temperature 73 °F 61 °F - (-1)
Min Temperature 31 °F 42 °F - (-1)
Degree Days  
Heating Degree Days 13    
Growing Degree Days 2 (Base 50)    
Moisture  
Dew Point 32 °F    
Average Humidity 56    
Maximum Humidity 94    
Minimum Humidity 21    
Precipitation  
Precipitation 0.00 in - - ()
Sea Level Pressure  
Sea Level Pressure 30.19 in    
Wind  
Wind Speed 3 mph (East)    
Max Wind Speed 9 mph    
Max Gust Speed -    
Visibility 10 miles    
Events      
Averages and records for this station are not official NWS values.
T = Trace of Precipitation, MM = Missing Value Source: NWS Daily Summary

Daily Weather History Graph

Daily Weather History Graph

Search for Another Location

Airport or City:

Trip Planner

Search our weather history database for the weather conditions in past years. The results will help you decide how hot, cold, wet, or windy it might be!

Date:

Astronomy

Oct. 06, 2012 Rise Set
Actual Time 7:16 AM PDT 6:38 PM PDT
Civil Twilight 6:45 AM PDT 7:08 PM PDT
Nautical Twilight 6:10 AM PDT 7:44 PM PDT
Astronomical Twilight 5:34 AM PDT 8:19 PM PDT
Moon 10:41 PM PDT (10/6) 1:33 PM PDT (10/6)
Length of Visible Light 12h 22m
Length of Day
11h 22m
Waning Gibbous, 64% of the Moon is Illuminated
Oct 6
Waning Gibbous
Oct 8
Last Quarter
Oct 15
New
Oct 21
First Quarter
Oct 29
Full

Hourly Weather History & Observations

Time (PDT) Temp. Dew Point Humidity Pressure Visibility Wind Dir Wind Speed Gust Speed Precip Events Conditions
12:58 AM 38.3 °F 33.3 °F 82% 30.24 in 10.0 mi East 2.3 mph - N/A   Clear
1:58 AM 36.7 °F 31.5 °F 81% 30.24 in 10.0 mi Calm Calm - N/A   Clear
2:58 AM 36.0 °F 31.6 °F 84% 30.24 in 10.0 mi SSE 1.2 mph - N/A   Clear
3:58 AM 33.6 °F 30.7 °F 89% 30.23 in 10.0 mi South 2.3 mph - N/A   Clear
4:58 AM 32.4 °F 29.7 °F 90% 30.23 in 10.0 mi SSE 2.3 mph - N/A   Clear
5:58 AM 31.3 °F 28.2 °F 88% 30.24 in 10.0 mi SSE 2.3 mph - N/A   Clear
6:58 AM 31.3 °F 29.7 °F 94% 30.24 in 10.0 mi Calm Calm - N/A   Clear
7:58 AM 31.5 °F 29.1 °F 91% 30.25 in 10.0 mi Calm Calm - N/A   Clear
8:58 AM 39.9 °F 33.6 °F 78% 30.24 in 10.0 mi South 2.3 mph - N/A   Clear
9:58 AM 50.4 °F 37.8 °F 62% 30.25 in 10.0 mi Variable 1.2 mph - N/A   Clear
10:58 AM 59.5 °F 39.4 °F 47% 30.24 in 10.0 mi Variable 3.5 mph - N/A   Clear
11:58 AM 65.8 °F 34.0 °F 31% 30.22 in 10.0 mi NNE 8.1 mph - N/A   Clear
12:58 PM 67.5 °F 32.4 °F 27% 30.22 in 10.0 mi Variable 4.6 mph - N/A   Clear
1:58 PM 69.8 °F 34.7 °F 27% 30.19 in 10.0 mi NNW 8.1 mph - N/A   Clear
2:58 PM 72.9 °F 31.1 °F 21% 30.17 in 10.0 mi North 6.9 mph - N/A   Clear
3:58 PM 73.4 °F 30.7 °F 21% 30.16 in 10.0 mi North 6.9 mph - N/A   Clear
4:58 PM 72.5 °F 29.7 °F 21% 30.14 in 10.0 mi NNE 9.2 mph - N/A   Clear
5:58 PM 69.4 °F 28.2 °F 21% 30.13 in 10.0 mi NNE 5.8 mph - N/A   Clear
6:58 PM 64.4 °F 25.2 °F 23% 30.13 in 10.0 mi NNE 5.8 mph - N/A   Clear
7:58 PM 61.7 °F 32.5 °F 33% 30.13 in 10.0 mi North 5.8 mph - N/A   Clear
8:58 PM 61.0 °F 36.1 °F 40% 30.12 in 10.0 mi SSW 3.5 mph - N/A   Clear
9:58 PM 46.9 °F 31.8 °F 56% 30.13 in 10.0 mi South 2.3 mph - N/A   Clear
10:58 PM 44.8 °F 34.3 °F 67% 30.12 in 10.0 mi Calm Calm - N/A   Clear
11:58 PM 40.6 °F 32.9 °F 74% 30.12 in 10.0 mi SSE 1.2 mph - N/A   Clear